Cucuta, Colombia

2:02 AM -05 on June 28, 2017 (GMT -0500)
Camilo Daza International

Weather History for SKCC - June, 2013

Change the Weather History Date:

Sunday, June 23, 2013

  Actual Average (SVSA) Record (SVSA)
Temperature  
Mean Temperature 84 °F -  
Max Temperature 93 °F 91 °F 95 °F (2012)
Min Temperature 74 °F 73 °F 71 °F (2010)
Cooling Degree Days 18    
Growing Degree Days 34 (Base 50)    
Moisture  
Dew Point 69 °F    
Average Humidity 62    
Maximum Humidity 89    
Minimum Humidity 34    
Precipitation  
Precipitation 0.02 in 0.04 in - ()
Sea Level Pressure  
Sea Level Pressure 29.89 in    
Wind  
Wind Speed 8 mph ()    
Max Wind Speed 28 mph    
Max Gust Speed -    
Visibility 7.1 miles    
Events Rain    
Averages and records for this station are not official NWS values.
T = Trace of Precipitation, MM = Missing Value Source: Averaged Metar Reports

Daily Weather History Graph

Daily Weather History Graph

Search for Another Location

Airport or City:

Trip Planner

Search our weather history database for the weather conditions in past years. The results will help you decide how hot, cold, wet, or windy it might be!

Date:

Astronomy

Jun. 23, 2013 Rise Set
Actual Time 5:34 AM -05 6:09 PM -05
Civil Twilight 5:11 AM -05 6:32 PM -05
Nautical Twilight 4:45 AM -05 6:59 PM -05
Astronomical Twilight 4:17 AM -05 7:26 PM -05
Moon 6:34 PM -05 (6/23) 5:37 AM -05 (6/23)
Length of Visible Light 13h 20m
Length of Day
12h 35m
Full, 100% of the Moon is Illuminated
Jun 23
Full
Jun 29
Last Quarter
Jul 8
New
Jul 15
First Quarter
Jul 22
Full

Hourly Weather History & Observations

Time (-05) Temp. Heat Index Dew Point Humidity Pressure Visibility Wind Dir Wind Speed Gust Speed Precip Events Conditions
5:00 AM - - - N/A% 29.94 in 6.2 mi Calm Calm - N/A   Scattered Clouds
5:30 AM - - - N/A% 29.94 in 6.2 mi Calm Calm - N/A   Scattered Clouds
6:00 AM 75.2 °F - 68.0 °F 78% 29.94 in 6.2 mi Calm Calm - N/A   Scattered Clouds
7:00 AM 76 °F - 73 °F 87% 29.84 in 11 mi North 6.7 mph - -   Scattered Clouds
7:00 AM 77.0 °F - 73.4 °F 89% 29.94 in 6.2 mi North 6.9 mph - N/A   Scattered Clouds
8:00 AM 78.8 °F - 69.8 °F 74% 29.98 in 6.2 mi North 6.9 mph - N/A   Scattered Clouds
9:00 AM 80.6 °F 84.6 °F 71.6 °F 74% 29.98 in 6.2 mi North 6.9 mph - N/A   Scattered Clouds
10:00 AM 84 °F - 70 °F 53% 29.84 in 11 mi SSE 6.7 mph - -   Partly Cloudy
10:00 AM 84.2 °F 88.4 °F 69.8 °F 62% 29.96 in 6.2 mi SSE 6.9 mph - N/A   Scattered Clouds
11:00 AM 89.6 °F 93.4 °F 68.0 °F 49% 29.94 in 6.2 mi South 27.6 mph - N/A   Scattered Clouds
12:00 PM 89.6 °F 92.2 °F 66.2 °F 46% 29.92 in 6.2 mi South 27.6 mph - N/A   Scattered Clouds
1:00 PM 90 °F - 65 °F 34% 29.78 in 12 mi SSE 22.4 mph - -   Partly Cloudy
1:00 PM 89.6 °F 92.2 °F 66.2 °F 46% 29.89 in 6.2 mi SSE 23.0 mph - N/A   Scattered Clouds
2:00 PM 91.4 °F 93.2 °F 64.4 °F 41% 29.86 in 6.2 mi SSE 16.1 mph - N/A   Scattered Clouds
3:00 PM 91.4 °F 94.0 °F 66.2 °F 43% 29.84 in 6.2 mi East 9.2 mph - N/A   Scattered Clouds
4:00 PM 90 °F - 72 °F 46% 29.73 in 9 mi North 6.7 mph - -  
4:00 PM 89.6 °F 96.2 °F 71.6 °F 55% 29.84 in 6.2 mi North 6.9 mph - N/A   Scattered Clouds
5:00 PM 86.0 °F 88.2 °F 66.2 °F 51% 29.88 in 6.2 mi SSE 16.1 mph - N/A   Scattered Clouds
6:00 PM 82.4 °F 85.4 °F 68.0 °F 62% 29.88 in 6.2 mi South 13.8 mph - N/A   Scattered Clouds
7:00 PM 80 °F - 69 °F 62% 29.82 in 9 mi South 22.4 mph - - Rain Light Rain
7:00 PM 80.6 °F 83.9 °F 69.8 °F 70% 29.93 in 6.2 mi South 23.0 mph - N/A Rain Light Rain
8:00 PM 78.8 °F - 69.8 °F 74% 29.94 in 6.2 mi SSE 11.5 mph - N/A   Light Drizzle
9:00 PM 78.8 °F - 69.8 °F 74% 29.85 in 6.2 mi South 11.5 mph - N/A   Light Drizzle
10:00 PM 79 °F - 69 °F 63% 29.85 in 9 mi SSE 6.7 mph - -   Partly Cloudy
10:00 PM 78.8 °F - 68.0 °F 69% 29.96 in 6.2 mi SSE 6.9 mph - N/A   Scattered Clouds
11:00 PM 77.0 °F - 68.0 °F 74% 29.95 in 6.2 mi SW 4.6 mph - N/A   Scattered Clouds